सभी
Fosston Muni/Anderson Fld Airport (Fosston, MN) FSE मौसम
|
Fosston, MN (KFSE)
स्वच्छ आकाश
हल्की हवाएं |
|
13 °C |
There is no TAF data available at FSE or any nearby airports.
Recent FSE METAR history
| Date | Time (CDT) | Flight Rules | Wind Dir. | Speed | Type | Height AGL (ft) | Visibility | Temp (°C) | Temp (°F) | Dew Point (°C) | Dew Point (°F) | Rel. Humid. | Pressure | Density Altitude | Remarks |
|---|---|---|---|---|---|---|---|---|---|---|---|---|---|---|---|
| 02-मई | 20:35 | VFR | 100° | 5 kt | 10 miles | 13° | 55° | 0° | 32° | 41% | 29.70 in Hg | 1,496 ft | |||
| 02-मई | 20:15 | VFR | 90° | 3 kt | 10 miles | 14° | 57° | 0° | 32° | 38% | 29.70 in Hg | 1,616 ft | |||
| 02-मई | 19:55 | VFR | 110° | 4 kt | 10 miles | 15° | 59° | -1° | 30° | 33% | 29.69 in Hg | 1,746 ft | |||
| 02-मई | 19:35 | VFR | 150° | 5 kt | 10 miles | 16° | 60° | -2° | 28° | 29% | 29.71 in Hg | 1,846 ft | |||
| 02-मई | 19:15 | VFR | 170° | 6 kt | 10 miles | 17° | 62° | -1° | 30° | 29% | 29.71 in Hg | 1,966 ft | |||
| 02-मई | 18:55 | VFR | 180° | 6 kt | 10 miles | 17° | 62° | -2° | 28° | 27% | 29.71 in Hg | 1,966 ft | |||
| 02-मई | 18:15 | VFR | 180° | 6 kt | 10 miles | 17° | 62° | -1° | 30° | 29% | 29.73 in Hg | 1,946 ft | |||
| 02-मई | 17:55 | VFR | 210° | 7 kt | 10 miles | 17° | 62° | -1° | 30° | 29% | 29.74 in Hg | 1,936 ft | |||
| 02-मई | 17:35 | VFR | 220° | 10 kt | 10 miles | 17° | 62° | -1° | 30° | 29% | 29.74 in Hg | 1,936 ft | |||
| 02-मई | 17:15 | VFR | 210° | 4 kt | 10 miles | 16° | 60° | -1° | 30° | 31% | 29.75 in Hg | 1,806 ft | |||
| 02-मई | 16:55 | VFR | 240° | 7 kt | 10 miles | 16° | 60° | -1° | 30° | 31% | 29.76 in Hg | 1,796 ft | |||
| 02-मई | 16:35 | VFR | 260° | 8 kt | 10 miles | 16° | 60° | -2° | 28° | 29% | 29.77 in Hg | 1,786 ft | |||
| 02-मई | 16:15 | VFR | 200° | 5 kt | 10 miles | 17° | 62° | -2° | 28° | 27% | 29.77 in Hg | 1,906 ft | |||
| 02-मई | 15:55 | VFR | 210° | 7 kt | 10 miles | 17° | 62° | -2° | 28° | 27% | 29.78 in Hg | 1,896 ft | |||
| 02-मई | 15:15 | VFR | Calm | 10 miles | 15° | 59° | -2° | 28° | 31% | 29.80 in Hg | 1,636 ft | ||||
| 02-मई | 14:55 | VFR | 270° | 14 kt | 10 miles | 17° | 62° | -3° | 26° | 25% | 29.81 in Hg | 1,866 ft | Wind gusting to 25 KT | ||
| 02-मई | 14:35 | VFR | 250° | 12 kt | 10 miles | 18° | 64° | -2° | 28° | 26% | 29.81 in Hg | 1,986 ft | Wind gusting to 19 KT | ||
| 02-मई | 14:15 | VFR | 220° | 11 kt | 10 miles | 18° | 64° | -1° | 30° | 28% | 29.82 in Hg | 1,976 ft | |||
| 02-मई | 13:55 | VFR | 220° | 16 kt | 10 miles | 17° | 62° | 0° | 32° | 32% | 29.83 in Hg | 1,846 ft | |||
| 02-मई | 13:35 | VFR | 220° | 10 kt | 10 miles | 16° | 60° | -1° | 30° | 31% | 29.84 in Hg | 1,716 ft | |||
| 02-मई | 13:15 | VFR | 230° | 12 kt | 10 miles | 15° | 59° | -1° | 30° | 33% | 29.85 in Hg | 1,586 ft | |||
| 02-मई | 12:55 | VFR | 220° | 11 kt | 10 miles | 15° | 59° | -1° | 30° | 33% | 29.85 in Hg | 1,586 ft | |||
| 02-मई | 12:35 | VFR | 230° | 10 kt | 10 miles | 15° | 59° | -1° | 30° | 33% | 29.86 in Hg | 1,576 ft | Wind gusting to 15 KT | ||
| 02-मई | 12:15 | VFR | 220° | 10 kt | 10 miles | 15° | 59° | -1° | 30° | 33% | 29.87 in Hg | 1,566 ft |
लॉगिन
| Your browser is unsupported. अपना ब्राऊजर अपग्रेड करें |
